CZ-6A DEB, 54466

Orbit data source: Space-Track

CZ-6A DEB, 54466 is space debris in SSO originally from a launch on Fri, 11 Nov 2022 UTC launched from the Taiyaun Space Center, China (TSC). Debris objects in space refer to the collection of defunct objects orbiting the Earth. Examples of debris include non-operational satellites, rocket bodies, and fragments generated from explosions, collisions, or faulty payload assembly.

Loading next visibility...
Identifier
54466, 2022-151GS
Orbit
SSO
Country
Flag of CNCN / PRC
Related business
Manufacturer
SAST
Mission
Spacecraft
Bus & Motor
Unknown
Mass
Unknown
Launch date (UTC)
2022-11-11 (3 years ago)
Launch vehicle
Unknown
Launch site
Taiyaun Space Center, China (TSC)
Object type
Payload
Rocket body
Debris
Shape & HBR
Unknown shape, 0.2 m
Radar Cross Section
Medium (>0.1 m² and <1 m²)

Expand to show TLE details & history
Last TLE update: 16 hours ago

TLE from 16 hours ago
0 CZ-6A DEB
1 54466U 22151GS  25353.88621809  .00000984  00000-0  51122-3 0  9991
2 54466  98.8281   2.0218 0029963  95.3534 265.1060 14.16796231159997
Epoch: 2025-12-19T21:16Z
TLE epoch observation values (Epoch: 2025-12-19T21:16:09.242Z)
Latitude
-0.00006°
Longitude
-45.73764°
Altitude
841.023 km
Speed
7.431 km/s
True Right ascension
00h 08m 05s
True Declination
0° 00' 00"
Sunlit
Object was in daylight at epoch
Visualization orbit readout
Latitude
Unknown
Longitude
Unknown
Altitude
Unknown
Speed
Unknown
Apparent Right ascension
Unknown
Apparent Declination
Unknown
Sunlit
N/A
Visualization observer readout
Local Sidereal Time
12:21:42
Azimuth
Unknown
Elevation
Unknown
Doppler factor
Unknown
Orbital elements
Apogee altitude
854.984 km
Perigee altitude
811.769 km
Semi-major axis
7,211.514 km
Eccentricity
0.003
Inclination
98.8281°
RAAN
2.0218°
Arg. of periapsis
95.3534°
True anomaly
264.76401°
Mean anomaly
265.106°
Eccentric anomaly
264.935°
Mean motion
3.54408 °/min
Orbital period
101.58 mins
BSTAR
0.00051122
Loading maneuver chart data...
Computing Atmospheric mass density...

Documentation

Showing up to 5 results
|